Location: Gniazdowice
(50.2124°N, 20.2673°E)
Time: 00:08:44
(UTC+00:00)

Cosmos 2082 Rocket - Pass Details

Date: 23 May 2024
Orbit: 832 x 853 km, 71.0° (Epoch: 18 June)

Event Time Altitude Azimuth Distance (km) Brightness Sun altitude
Exits shadow 01:48:46 - 264° (W) 3,330 4.8 -7.3°
Reaches altitude 10° 01:51:42 10° 281° (W) 2,488 4.3 -7.0°
Maximum altitude 01:55:41 19° 325° (NW) 1,928 4.2 -6.5°
Drops below altitude 10° 01:59:41 10° 10° (N) 2,492 5.6 -6.1°
Sets 02:02:55 0° 28° (NNE) 3,428 7.0 -5.7°
